sat.trackr.live / text

‹ back to catalog

STARLINK-5125

NORAD 53994 · 2022-125AG

PAYLOAD ACTIVE UNKNOWN

§ Identity

Operator
Country
US
Launch date
2022-10-05
Launch site
AFWTR
Launch vehicle
Mass (kg)
RCS (m²)

Purposes: comms

External: N2YO · Heavens-Above · Gunter

§ Orbital elements

Epoch: 2026-09-20T22:00:03.000096Z

Period
94.33 min
Inclination
53.1589°
Eccentricity
0.0001401
Mean motion
15.26486638 rev/d
Perigee alt
485.4 km
Apogee alt
487.3 km
Semi-major
6,864.5 km
B*
1.4804e-3
RAAN
56.0363°
Arg perigee
76.5371°
Mean anomaly
140.7101°
Rev number
580

§ Raw data

STARLINK-51251 53994U 22125AG  26263.91670139  .00038999  00000+0  14804-2 0  99932 53994  53.1589  56.0363 0001401  76.5371 140.7101 15.26486638  5807

JSON: /api/v1/satellites/53994 · /tle

For live sub-satellite position, see the globe view (requires WebGL).

§ Visibility from observer

Set your observer location to see the next 7 days of passes ≥ 10°. The values pass through the URL so the page stays shareable.

No JS? Fill the form by hand. The geolocation button needs JavaScript.